,,,PA_Meas_PMT16A,,PR_Meas_QMR101_102,,RH_Meas_QMH101,,SR_Meas_QMS101,,TA_Meas_QMH101,,GenWind,,GenWind,
date,time,status,PA,status,PR,status,RH,status,SR,status,TA,status,DirAvg,status,SpdAvg,
2013-03-11, 00:00:04,VALID,1011.84,VALID,0,VALID,104,VALID,0,VALID,25.2708,VALID,357,VALID,0.165234,
2013-03-11, 00:01:04,VALID,1011.82,VALID,0,VALID,104,VALID,0,VALID,25.2922,VALID,356,VALID,0.132422,
2013-03-11, 00:02:04,VALID,1011.81,VALID,0,VALID,104,VALID,0,VALID,25.2708,VALID,356,VALID,0.213281,
2013-03-11, 00:03:04,VALID,1011.78,VALID,0,VALID,104,VALID,0,VALID,25.2513,VALID,357,VALID,0.184375,
2013-03-11, 00:04:04,VALID,1011.75,VALID,0,VALID,104,VALID,0,VALID,25.2727,VALID,356,VALID,0.184375,
2013-03-11, 00:05:04,VALID,1011.74,VALID,0,VALID,104,VALID,0,VALID,25.2318,VALID,357,VALID,0.166797,
2013-03-11, 00:06:04,VALID,1011.71,VALID,0,VALID,104,VALID,0,VALID,25.2123,VALID,356,VALID,0.235938,
2013-03-11, 00:07:04,VALID,1011.75,VALID,0,VALID,104,VALID,0,VALID,25.2337,VALID,357,VALID,0.240234,
2013-03-11, 00:08:04,VALID,1011.73,VALID,0,VALID,104,VALID,0,VALID,25.2337,VALID,356,VALID,0,
2013-03-11, 00:09:04,VALID,1011.7,VALID,0,VALID,104,VALID,0.112112,VALID,25.2123,VALID,357,VALID,0,
2013-03-11, 00:10:04,VALID,1011.69,VALID,0,VALID,104,VALID,0,VALID,25.2337,VALID,356,VALID,0,
2013-03-11, 00:11:04,VALID,1011.68,VALID,0,VALID,104,VALID,0,VALID,25.2318,VALID,356,VALID,0.0699219,
2013-03-11, 00:12:04,VALID,1011.65,VALID,0,VALID,104,VALID,0,VALID,25.2337,VALID,356,VALID,0,
2013-03-11, 00:13:04,VALID,1011.61,VALID,0,VALID,104,VALID,0,VALID,25.2532,VALID,356,VALID,0.232422,
2013-03-11, 00:14:04,VALID,1011.6,VALID,0,VALID,104,VALID,0,VALID,25.2123,VALID,356,VALID,0.407813,
2013-03-11, 00:15:04,VALID,1011.59,VALID,0,VALID,104,VALID,0,VALID,25.2532,VALID,356,VALID,0.441016,
2013-03-11, 00:16:04,VALID,1011.56,VALID,0,VALID,104,VALID,0,VALID,25.2532,VALID,356,VALID,0.291406,
2013-03-11, 00:17:04,VALID,1011.55,VALID,0,VALID,104,VALID,0,VALID,25.2532,VALID,356,VALID,0.264844,
2013-03-11, 00:18:04,VALID,1011.54,VALID,0,VALID,104,VALID,0,VALID,25.2318,VALID,356,VALID,0.192188,
2013-03-11, 00:19:04,VALID,1011.51,VALID,0,VALID,104,VALID,0,VALID,25.2532,VALID,356,VALID,0.223828,
2013-03-11, 00:20:04,VALID,1011.5,VALID,0,VALID,104,VALID,0,VALID,25.2337,VALID,356,VALID,0.0582031,
2013-03-11, 00:21:04,VALID,1011.49,VALID,0,VALID,104,VALID,0,VALID,25.2123,VALID,357,VALID,0.117188,
2013-03-11, 00:22:04,VALID,1011.46,VALID,0,VALID,104,VALID,0,VALID,25.2337,VALID,356,VALID,0.267578,
2013-03-11, 00:23:04,VALID,1011.48,VALID,0,VALID,104,VALID,0,VALID,25.2337,VALID,357,VALID,0.0140625,
2013-03-11, 00:24:04,VALID,1011.48,VALID,0,VALID,104,VALID,0,VALID,25.2337,VALID,356,VALID,0,
2013-03-11, 00:25:04,VALID,1011.49,VALID,0,VALID,104,VALID,0,VALID,25.2337,VALID,357,VALID,0,
2013-03-11, 00:26:04,VALID,1011.49,VALID,0,VALID,104,VALID,0,VALID,25.2532,VALID,356,VALID,0,
2013-03-11, 00:27:04,VALID,1011.45,VALID,0,VALID,104,VALID,0,VALID,25.2337,VALID,356,VALID,0.0015625,
2013-03-11, 00:28:04,VALID,1011.47,VALID,0,VALID,104,VALID,0,VALID,25.2337,VALID,357,VALID,0.053125,
2013-03-11, 00:29:04,VALID,1011.47,VALID,0,VALID,104,VALID,0,VALID,25.2337,VALID,356,VALID,0,
2013-03-11, 00:30:04,VALID,1011.45,VALID,0,VALID,104,VALID,0,VALID,25.2123,VALID,356,VALID,0.00195313,
2013-03-11, 00:31:04,VALID,1011.44,VALID,0,VALID,104,VALID,0,VALID,25.2337,VALID,357,VALID,0.163672,
2013-03-11, 00:32:04,VALID,1011.44,VALID,0,VALID,104,VALID,0,VALID,25.2337,VALID,356,VALID,0.150391,
2013-03-11, 00:33:04,VALID,1011.41,VALID,0,VALID,104,VALID,0,VALID,25.2142,VALID,356,VALID,0,
2013-03-11, 00:34:04,VALID,1011.4,VALID,0,VALID,104,VALID,0,VALID,25.1752,VALID,356,VALID,0,
2013-03-11, 00:35:04,VALID,1011.4,VALID,0,VALID,104,VALID,0,VALID,25.1947,VALID,356,VALID,0,
2013-03-11, 00:36:04,VALID,1011.35,VALID,0,VALID,104,VALID,0,VALID,25.1752,VALID,356,VALID,0,
2013-03-11, 00:37:04,VALID,1011.33,VALID,0,VALID,104,VALID,0,VALID,25.1947,VALID,356,VALID,0,
2013-03-11, 00:38:04,VALID,1011.31,VALID,0,VALID,104,VALID,0,VALID,25.1947,VALID,356,VALID,0,
2013-03-11, 00:39:04,VALID,1011.31,VALID,0,VALID,104,VALID,0,VALID,25.1947,VALID,356,VALID,0,
2013-03-11, 00:40:04,VALID,1011.29,VALID,0,VALID,104,VALID,0,VALID,25.1947,VALID,356,VALID,0.0855469,
2013-03-11, 00:41:04,VALID,1011.28,VALID,0,VALID,104,VALID,0,VALID,25.2142,VALID,356,VALID,0.1,
2013-03-11, 00:42:04,VALID,1011.24,VALID,0,VALID,104,VALID,0,VALID,25.2142,VALID,356,VALID,0.239063,
2013-03-11, 00:43:04,VALID,1011.24,VALID,0,VALID,104,VALID,0,VALID,25.2142,VALID,356,VALID,0,
2013-03-11, 00:44:04,VALID,1011.19,VALID,0,VALID,104,VALID,0,VALID,25.2337,VALID,357,VALID,0.201172,
2013-03-11, 00:45:04,VALID,1011.2,VALID,0,VALID,104,VALID,0,VALID,25.2142,VALID,356,VALID,0,
2013-03-11, 00:46:04,VALID,1011.17,VALID,0,VALID,104,VALID,0,VALID,25.2142,VALID,356,VALID,0,
2013-03-11, 00:47:04,VALID,1011.14,VALID,0,VALID,104,VALID,0,VALID,25.2318,VALID,356,VALID,0.447656,
2013-03-11, 00:48:04,VALID,1011.11,VALID,0,VALID,104,VALID,0,VALID,25.2532,VALID,356,VALID,0.2125,
2013-03-11, 00:49:04,VALID,1011.09,VALID,0,VALID,104,VALID,0,VALID,25.2727,VALID,356,VALID,0.257031,
2013-03-11, 00:50:04,VALID,1011.1,VALID,0,VALID,104,VALID,0,VALID,25.2727,VALID,356,VALID,0.253516,
2013-03-11, 00:51:04,VALID,1011.1,VALID,0,VALID,103.962,VALID,0,VALID,25.2727,VALID,356,VALID,0.223828,
2013-03-11, 00:52:04,VALID,1011.1,VALID,0,VALID,103.97,VALID,0,VALID,25.2727,VALID,357,VALID,0.421484,
2013-03-11, 00:53:04,VALID,1011.06,VALID,0,VALID,103.939,VALID,0,VALID,25.2123,VALID,356,VALID,0.282422,
2013-03-11, 00:54:04,VALID,1011.08,VALID,0,VALID,103.87,VALID,0,VALID,25.2142,VALID,356,VALID,0.261719,
2013-03-11, 00:55:04,VALID,1011.05,VALID,0,VALID,103.992,VALID,0,VALID,25.2142,VALID,356,VALID,0.273438,
2013-03-11, 00:56:04,VALID,1011.07,VALID,0,VALID,104,VALID,0,VALID,25.1947,VALID,356,VALID,0.284766,
2013-03-11, 00:57:04,VALID,1011.08,VALID,0,VALID,104,VALID,0,VALID,25.1947,VALID,356,VALID,0.0773437,
2013-03-11, 00:58:04,VALID,1011.05,VALID,0,VALID,104,VALID,0,VALID,25.1538,VALID,356,VALID,0,
2013-03-11, 00:59:04,VALID,1011.04,VALID,0,VALID,104,VALID,0,VALID,25.1752,VALID,356,VALID,0,
2013-03-11, 01:00:04,VALID,1011.01,VALID,0,VALID,104,VALID,0,VALID,25.1752,VALID,356,VALID,0.00664063,
2013-03-11, 01:01:04,VALID,1011,VALID,0,VALID,104,VALID,0,VALID,25.1557,VALID,356,VALID,0.35625,
2013-03-11, 01:02:04,VALID,1010.98,VALID,0,VALID,104,VALID,0,VALID,25.1362,VALID,356,VALID,0.230469,
2013-03-11, 01:03:04,VALID,1010.95,VALID,0,VALID,104,VALID,0,VALID,25.1167,VALID,356,VALID,0.131641,
2013-03-11, 01:04:04,VALID,1010.93,VALID,0,VALID,104,VALID,0.112112,VALID,25.0954,VALID,356,VALID,0.155859,
2013-03-11, 01:05:04,VALID,1010.91,VALID,0,VALID,104,VALID,0.112112,VALID,25.0759,VALID,356,VALID,0.196875,
2013-03-11, 01:06:04,VALID,1010.9,VALID,0,VALID,104,VALID,0.112112,VALID,25.0369,VALID,356,VALID,0.0914062,
2013-03-11, 01:07:04,VALID,1010.89,VALID,0,VALID,104,VALID,0.112112,VALID,25.0174,VALID,356,VALID,0,
2013-03-11, 01:08:04,VALID,1010.9,VALID,0,VALID,104,VALID,0.112112,VALID,24.9784,VALID,356,VALID,0,
2013-03-11, 01:09:04,VALID,1010.9,VALID,0,VALID,104,VALID,0.112112,VALID,24.9589,VALID,356,VALID,0,
2013-03-11, 01:10:04,VALID,1010.89,VALID,0,VALID,104,VALID,0.112112,VALID,24.9394,VALID,356,VALID,0,
2013-03-11, 01:11:04,VALID,1010.9,VALID,0,VALID,104,VALID,0.112112,VALID,24.918,VALID,356,VALID,0,
2013-03-11, 01:12:04,VALID,1010.88,VALID,0,VALID,104,VALID,0,VALID,24.9394,VALID,356,VALID,0,
2013-03-11, 01:13:04,VALID,1010.84,VALID,0,VALID,104,VALID,0.112112,VALID,24.9589,VALID,356,VALID,0,
2013-03-11, 01:14:04,VALID,1010.84,VALID,0,VALID,104,VALID,0,VALID,24.9394,VALID,356,VALID,0.0582031,
2013-03-11, 01:15:04,VALID,1010.86,VALID,0,VALID,104,VALID,0.112112,VALID,24.9199,VALID,356,VALID,0.364453,
2013-03-11, 01:16:04,VALID,1010.85,VALID,0,VALID,104,VALID,0.112112,VALID,24.9199,VALID,356,VALID,0.247656,
2013-03-11, 01:17:04,VALID,1010.85,VALID,0,VALID,104,VALID,0.112112,VALID,24.9394,VALID,356,VALID,0.314453,
2013-03-11, 01:18:04,VALID,1010.81,VALID,0,VALID,104,VALID,0.112112,VALID,24.8985,VALID,356,VALID,0.282031,
2013-03-11, 01:19:04,VALID,1010.8,VALID,0,VALID,104,VALID,0,VALID,24.9023,VALID,356,VALID,0.171484,
2013-03-11, 01:20:04,VALID,1010.79,VALID,0,VALID,104,VALID,0,VALID,24.8828,VALID,356,VALID,0.171484,
2013-03-11, 01:21:04,VALID,1010.79,VALID,0,VALID,104,VALID,0,VALID,24.8438,VALID,356,VALID,0.256641,
2013-03-11, 01:22:04,VALID,1010.79,VALID,0,VALID,104,VALID,0,VALID,24.8049,VALID,356,VALID,0.199609,
2013-03-11, 01:23:04,VALID,1010.78,VALID,0,VALID,104,VALID,0,VALID,24.7659,VALID,356,VALID,0.174219,
2013-03-11, 01:24:04,VALID,1010.81,VALID,0,VALID,104,VALID,0,VALID,24.7464,VALID,356,VALID,0.222266,
2013-03-11, 01:25:04,VALID,1010.83,VALID,0,VALID,104,VALID,0,VALID,24.7269,VALID,356,VALID,0.126563,
2013-03-11, 01:26:04,VALID,1010.83,VALID,0,VALID,104,VALID,0,VALID,24.7269,VALID,356,VALID,0.144141,
2013-03-11, 01:27:04,VALID,1010.82,VALID,0,VALID,104,VALID,0,VALID,24.7074,VALID,356,VALID,0.0609375,
2013-03-11, 01:28:04,VALID,1010.79,VALID,0,VALID,104,VALID,0,VALID,24.6684,VALID,356,VALID,0.286719,
2013-03-11, 01:29:04,VALID,1010.83,VALID,0,VALID,104,VALID,0,VALID,24.6879,VALID,356,VALID,0.292188,
2013-03-11, 01:30:04,VALID,1010.81,VALID,0,VALID,104,VALID,0,VALID,24.6684,VALID,356,VALID,0.157031,
2013-03-11, 01:31:04,VALID,1010.82,VALID,0,VALID,104,VALID,0,VALID,24.6471,VALID,356,VALID,0.0269531,
2013-03-11, 01:32:04,VALID,1010.77,VALID,0,VALID,104,VALID,0,VALID,24.6489,VALID,356,VALID,0,
2013-03-11, 01:33:04,VALID,1010.79,VALID,0,VALID,104,VALID,0,VALID,24.6471,VALID,356,VALID,0,
2013-03-11, 01:34:04,VALID,1010.78,VALID,0,VALID,104,VALID,0,VALID,24.6684,VALID,356,VALID,0,
2013-03-11, 01:35:04,VALID,1010.81,VALID,0,VALID,104,VALID,0,VALID,24.6684,VALID,356,VALID,0,
2013-03-11, 01:36:04,VALID,1010.78,VALID,0,VALID,104,VALID,0,VALID,24.6684,VALID,356,VALID,0.0832031,
2013-03-11, 01:37:04,VALID,1010.75,VALID,0,VALID,104,VALID,0,VALID,24.6684,VALID,356,VALID,0,
2013-03-11, 01:38:04,VALID,1010.74,VALID,0,VALID,104,VALID,0,VALID,24.6879,VALID,356,VALID,0,
2013-03-11, 01:39:04,VALID,1010.73,VALID,0,VALID,104,VALID,0,VALID,24.6684,VALID,356,VALID,0,
2013-03-11, 01:40:04,VALID,1010.7,VALID,0,VALID,104,VALID,0,VALID,24.6471,VALID,356,VALID,0,
2013-03-11, 01:41:04,VALID,1010.68,VALID,0,VALID,104,VALID,0,VALID,24.6684,VALID,356,VALID,0,
2013-03-11, 01:42:04,VALID,1010.66,VALID,0,VALID,104,VALID,0,VALID,24.6471,VALID,356,VALID,0,
2013-03-11, 01:43:04,VALID,1010.65,VALID,0,VALID,104,VALID,0,VALID,24.6489,VALID,356,VALID,0,
2013-03-11, 01:44:04,VALID,1010.64,VALID,0,VALID,104,VALID,0,VALID,24.6294,VALID,356,VALID,0,
2013-03-11, 01:45:04,VALID,1010.61,VALID,0,VALID,104,VALID,0,VALID,24.6294,VALID,356,VALID,0,
2013-03-11, 01:46:04,VALID,1010.61,VALID,0,VALID,104,VALID,0,VALID,24.6489,VALID,356,VALID,0,
2013-03-11, 01:47:04,VALID,1010.61,VALID,0,VALID,104,VALID,0,VALID,24.6313,VALID,356,VALID,0,
2013-03-11, 01:48:04,VALID,1010.59,VALID,0,VALID,104,VALID,0,VALID,24.6294,VALID,356,VALID,0,
2013-03-11, 01:49:04,VALID,1010.59,VALID,0,VALID,104,VALID,0,VALID,24.6294,VALID,356,VALID,0,
2013-03-11, 01:50:04,VALID,1010.56,VALID,0,VALID,104,VALID,0,VALID,24.6276,VALID,356,VALID,0,
2013-03-11, 01:51:04,VALID,1010.56,VALID,0,VALID,104,VALID,0,VALID,24.6684,VALID,356,VALID,0,
2013-03-11, 01:52:04,VALID,1010.58,VALID,0,VALID,104,VALID,0,VALID,24.6684,VALID,356,VALID,0,
2013-03-11, 01:53:04,VALID,1010.6,VALID,0,VALID,104,VALID,0,VALID,24.6489,VALID,356,VALID,0,
2013-03-11, 01:54:05,VALID,1010.59,VALID,0,VALID,104,VALID,0,VALID,24.6684,VALID,356,VALID,0.128516,
2013-03-11, 01:55:05,VALID,1010.6,VALID,0,VALID,104,VALID,0,VALID,24.6666,VALID,356,VALID,0.133984,
2013-03-11, 01:56:05,VALID,1010.61,VALID,0,VALID,104,VALID,0,VALID,24.7074,VALID,356,VALID,0,
2013-03-11, 01:57:05,VALID,1010.59,VALID,0,VALID,104,VALID,0,VALID,24.7074,VALID,356,VALID,0,
2013-03-11, 01:58:05,VALID,1010.56,VALID,0,VALID,104,VALID,0,VALID,24.7074,VALID,356,VALID,0.231641,
2013-03-11, 01:59:05,VALID,1010.57,VALID,0,VALID,104,VALID,0,VALID,24.7074,VALID,356,VALID,0.173828,
2013-03-11, 02:00:05,VALID,1010.56,VALID,0,VALID,104,VALID,0,VALID,24.6879,VALID,356,VALID,0.271484,
2013-03-11, 02:01:05,VALID,1010.56,VALID,0,VALID,104,VALID,0,VALID,24.6489,VALID,356,VALID,0.218359,
2013-03-11, 02:02:05,VALID,1010.56,VALID,0,VALID,104,VALID,0,VALID,24.6294,VALID,356,VALID,0.137891,
2013-03-11, 02:03:05,VALID,1010.57,VALID,0,VALID,104,VALID,0,VALID,24.6294,VALID,356,VALID,0.207031,
2013-03-11, 02:04:05,VALID,1010.54,VALID,0,VALID,104,VALID,0,VALID,24.6294,VALID,356,VALID,0.148438,
2013-03-11, 02:05:05,VALID,1010.54,VALID,0,VALID,104,VALID,0,VALID,24.5886,VALID,356,VALID,0.174219,
2013-03-11, 02:06:05,VALID,1010.52,VALID,0,VALID,104,VALID,0,VALID,24.571,VALID,356,VALID,0.148828,
2013-03-11, 02:07:05,VALID,1010.55,VALID,0,VALID,104,VALID,0,VALID,24.571,VALID,356,VALID,0.115625,
2013-03-11, 02:08:05,VALID,1010.53,VALID,0,VALID,104,VALID,0,VALID,24.571,VALID,356,VALID,0.107031,
2013-03-11, 02:09:05,VALID,1010.5,VALID,0,VALID,104,VALID,0,VALID,24.5515,VALID,356,VALID,0.235156,
2013-03-11, 02:10:05,VALID,1010.51,VALID,0,VALID,104,VALID,0,VALID,24.532,VALID,356,VALID,0.34375,
2013-03-11, 02:11:05,VALID,1010.51,VALID,0,VALID,104,VALID,0,VALID,24.5125,VALID,356,VALID,0.308984,
2013-03-11, 02:12:05,VALID,1010.55,VALID,0,VALID,104,VALID,0,VALID,24.493,VALID,356,VALID,0.132031,
2013-03-11, 02:13:05,VALID,1010.57,VALID,0,VALID,104,VALID,0,VALID,24.4735,VALID,356,VALID,0.0132813,
2013-03-11, 02:14:05,VALID,1010.57,VALID,0,VALID,104,VALID,0,VALID,24.4735,VALID,356,VALID,0,
2013-03-11, 02:15:05,VALID,1010.54,VALID,0,VALID,104,VALID,0,VALID,24.493,VALID,356,VALID,0,
2013-03-11, 02:16:05,VALID,1010.51,VALID,0,VALID,104,VALID,0,VALID,24.4735,VALID,356,VALID,0,
2013-03-11, 02:17:05,VALID,1010.51,VALID,0,VALID,104,VALID,0,VALID,24.4735,VALID,356,VALID,0,
2013-03-11, 02:18:05,VALID,1010.53,VALID,0,VALID,104,VALID,0,VALID,24.493,VALID,356,VALID,0,
2013-03-11, 02:19:05,VALID,1010.53,VALID,0,VALID,104,VALID,0,VALID,24.493,VALID,356,VALID,0,
2013-03-11, 02:20:05,VALID,1010.57,VALID,0,VALID,104,VALID,0,VALID,24.4717,VALID,356,VALID,0,
2013-03-11, 02:21:05,VALID,1010.55,VALID,0,VALID,104,VALID,0,VALID,24.4735,VALID,356,VALID,0.214844,
2013-03-11, 02:22:05,VALID,1010.54,VALID,0,VALID,104,VALID,0,VALID,24.4735,VALID,356,VALID,0.210938,
2013-03-11, 02:23:05,VALID,1010.52,VALID,0,VALID,104,VALID,0,VALID,24.5125,VALID,356,VALID,0.142578,
2013-03-11, 02:24:05,VALID,1010.53,VALID,0,VALID,104,VALID,0,VALID,24.5125,VALID,356,VALID,0,
2013-03-11, 02:25:05,VALID,1010.52,VALID,0,VALID,104,VALID,0,VALID,24.4911,VALID,356,VALID,0,
2013-03-11, 02:26:05,VALID,1010.51,VALID,0,VALID,104,VALID,0,VALID,24.4735,VALID,356,VALID,0,
2013-03-11, 02:27:05,VALID,1010.54,VALID,0,VALID,104,VALID,0,VALID,24.454,VALID,356,VALID,0,
2013-03-11, 02:28:05,VALID,1010.55,VALID,0,VALID,104,VALID,0,VALID,24.4132,VALID,356,VALID,0,
2013-03-11, 02:29:05,VALID,1010.52,VALID,0,VALID,104,VALID,0,VALID,24.3761,VALID,356,VALID,0,
2013-03-11, 02:30:05,VALID,1010.56,VALID,0,VALID,104,VALID,0,VALID,24.3956,VALID,356,VALID,0.121484,
2013-03-11, 02:31:05,VALID,1010.54,VALID,0,VALID,104,VALID,0,VALID,24.3956,VALID,356,VALID,0.334766,
2013-03-11, 02:32:05,VALID,1010.55,VALID,0,VALID,104,VALID,0,VALID,24.3761,VALID,356,VALID,0.172656,
2013-03-11, 02:33:05,VALID,1010.55,VALID,0,VALID,104,VALID,0,VALID,24.3956,VALID,356,VALID,0.143359,
2013-03-11, 02:34:05,VALID,1010.55,VALID,0,VALID,104,VALID,0,VALID,24.415,VALID,356,VALID,0,
2013-03-11, 02:35:05,VALID,1010.58,VALID,0,VALID,104,VALID,0,VALID,24.4132,VALID,356,VALID,0,
2013-03-11, 02:36:05,VALID,1010.6,VALID,0,VALID,104,VALID,0,VALID,24.3742,VALID,356,VALID,0,
2013-03-11, 02:37:05,VALID,1010.6,VALID,0,VALID,104,VALID,0,VALID,24.3761,VALID,356,VALID,0,
2013-03-11, 02:38:05,VALID,1010.6,VALID,0,VALID,104,VALID,0,VALID,24.3158,VALID,356,VALID,0,
2013-03-11, 02:39:05,VALID,1010.62,VALID,0,VALID,104,VALID,0,VALID,24.2963,VALID,356,VALID,0.0566406,
2013-03-11, 02:40:05,VALID,1010.66,VALID,0,VALID,104,VALID,0.112112,VALID,24.2768,VALID,356,VALID,0.189063,
2013-03-11, 02:41:05,VALID,1010.65,VALID,0,VALID,104,VALID,0.112112,VALID,24.2573,VALID,356,VALID,0,
2013-03-11, 02:42:05,VALID,1010.65,VALID,0,VALID,104,VALID,0,VALID,24.2573,VALID,356,VALID,0,
2013-03-11, 02:43:05,VALID,1010.62,VALID,0,VALID,104,VALID,0.112112,VALID,24.2591,VALID,356,VALID,0,
2013-03-11, 02:44:05,VALID,1010.62,VALID,0,VALID,104,VALID,0,VALID,24.2591,VALID,356,VALID,0,
2013-03-11, 02:45:05,VALID,1010.61,VALID,0,VALID,104,VALID,0,VALID,24.2378,VALID,356,VALID,0,
2013-03-11, 02:46:05,VALID,1010.64,VALID,0,VALID,104,VALID,0,VALID,24.2378,VALID,356,VALID,0.112891,
2013-03-11, 02:47:05,VALID,1010.62,VALID,0,VALID,104,VALID,0,VALID,24.2573,VALID,356,VALID,0.272266,
2013-03-11, 02:48:05,VALID,1010.64,VALID,0,VALID,104,VALID,0,VALID,24.2768,VALID,356,VALID,0.211328,
2013-03-11, 02:49:05,VALID,1010.63,VALID,0,VALID,104,VALID,0,VALID,24.2963,VALID,356,VALID,0.0609375,
2013-03-11, 02:50:05,VALID,1010.64,VALID,0,VALID,104,VALID,0,VALID,24.3371,VALID,356,VALID,0,
2013-03-11, 02:51:05,VALID,1010.66,VALID,0,VALID,104,VALID,0,VALID,24.3158,VALID,356,VALID,0,
2013-03-11, 02:52:05,VALID,1010.66,VALID,0,VALID,104,VALID,0,VALID,24.3371,VALID,356,VALID,0,
2013-03-11, 02:53:05,VALID,1010.67,VALID,0,VALID,104,VALID,0,VALID,24.2963,VALID,356,VALID,0,
2013-03-11, 02:54:05,VALID,1010.7,VALID,0,VALID,104,VALID,0.112112,VALID,24.2768,VALID,356,VALID,0,
2013-03-11, 02:55:05,VALID,1010.69,VALID,0,VALID,104,VALID,0,VALID,24.2573,VALID,356,VALID,0.301562,
2013-03-11, 02:56:05,VALID,1010.67,VALID,0,VALID,104,VALID,0,VALID,24.2786,VALID,356,VALID,0.198828,
2013-03-11, 02:57:05,VALID,1010.69,VALID,0,VALID,104,VALID,0,VALID,24.2591,VALID,356,VALID,0.183984,
2013-03-11, 02:58:05,VALID,1010.68,VALID,0,VALID,104,VALID,0,VALID,24.2573,VALID,356,VALID,0.161328,
2013-03-11, 02:59:05,VALID,1010.7,VALID,0,VALID,104,VALID,0,VALID,24.2573,VALID,356,VALID,0,
2013-03-11, 03:00:05,VALID,1010.69,VALID,0,VALID,104,VALID,0.112112,VALID,24.2981,VALID,356,VALID,0,
2013-03-11, 03:01:05,VALID,1010.74,VALID,0,VALID,104,VALID,0,VALID,24.2768,VALID,356,VALID,0.00234375,
2013-03-11, 03:02:05,VALID,1010.75,VALID,0,VALID,104,VALID,0,VALID,24.2981,VALID,356,VALID,0.233984,
2013-03-11, 03:03:05,VALID,1010.73,VALID,0,VALID,104,VALID,0,VALID,24.2786,VALID,356,VALID,0.198437,
2013-03-11, 03:04:05,VALID,1010.73,VALID,0,VALID,104,VALID,0,VALID,24.2591,VALID,356,VALID,0.192969,
2013-03-11, 03:05:05,VALID,1010.72,VALID,0,VALID,104,VALID,0,VALID,24.2378,VALID,356,VALID,0.283203,
2013-03-11, 03:06:05,VALID,1010.71,VALID,0,VALID,104,VALID,0,VALID,24.2378,VALID,356,VALID,0.241016,
2013-03-11, 03:07:05,VALID,1010.7,VALID,0,VALID,104,VALID,0,VALID,24.2396,VALID,356,VALID,0.282031,
2013-03-11, 03:08:05,VALID,1010.7,VALID,0,VALID,104,VALID,0,VALID,24.2202,VALID,356,VALID,0.176172,
2013-03-11, 03:09:05,VALID,1010.69,VALID,0,VALID,104,VALID,0,VALID,24.1988,VALID,356,VALID,0.159766,
2013-03-11, 03:10:05,VALID,1010.67,VALID,0,VALID,104,VALID,0,VALID,24.1988,VALID,356,VALID,0.151172,
2013-03-11, 03:11:05,VALID,1010.68,VALID,0,VALID,104,VALID,0,VALID,24.1793,VALID,356,VALID,0.0398437,
2013-03-11, 03:12:05,VALID,1010.66,VALID,0,VALID,104,VALID,0,VALID,24.1599,VALID,356,VALID,0,
2013-03-11, 03:13:05,VALID,1010.68,VALID,0,VALID,104,VALID,0,VALID,24.1404,VALID,356,VALID,0,
2013-03-11, 03:14:05,VALID,1010.7,VALID,0,VALID,104,VALID,0,VALID,24.1617,VALID,356,VALID,0,
2013-03-11, 03:15:05,VALID,1010.68,VALID,0,VALID,104,VALID,0,VALID,24.1617,VALID,356,VALID,0,
2013-03-11, 03:16:05,VALID,1010.68,VALID,0,VALID,104,VALID,0,VALID,24.1404,VALID,356,VALID,0,
2013-03-11, 03:17:05,VALID,1010.67,VALID,0,VALID,104,VALID,0,VALID,24.1404,VALID,356,VALID,0,
2013-03-11, 03:18:05,VALID,1010.66,VALID,0,VALID,104,VALID,0,VALID,24.1617,VALID,356,VALID,0,
2013-03-11, 03:19:05,VALID,1010.65,VALID,0,VALID,104,VALID,0.112112,VALID,24.1422,VALID,356,VALID,0.127734,
2013-03-11, 03:20:05,VALID,1010.61,VALID,0,VALID,104,VALID,0.112112,VALID,24.1209,VALID,356,VALID,0.458984,
2013-03-11, 03:21:05,VALID,1010.6,VALID,0,VALID,104,VALID,0.112112,VALID,24.1209,VALID,356,VALID,0.426562,
2013-03-11, 03:22:05,VALID,1010.59,VALID,0,VALID,104,VALID,0.112112,VALID,24.1209,VALID,356,VALID,0.249609,
2013-03-11, 03:23:05,VALID,1010.58,VALID,0,VALID,104,VALID,0,VALID,24.1209,VALID,356,VALID,0.0597656,
2013-03-11, 03:24:05,VALID,1010.56,VALID,0,VALID,104,VALID,0.112112,VALID,24.1209,VALID,356,VALID,0.232812,
2013-03-11, 03:25:05,VALID,1010.57,VALID,0,VALID,104,VALID,0,VALID,24.1599,VALID,356,VALID,0.258594,
2013-03-11, 03:26:05,VALID,1010.55,VALID,0,VALID,104,VALID,0.112112,VALID,24.1599,VALID,356,VALID,0.219141,
2013-03-11, 03:27:05,VALID,1010.57,VALID,0,VALID,104,VALID,0.112112,VALID,24.1793,VALID,356,VALID,0.19375,
2013-03-11, 03:28:05,VALID,1010.54,VALID,0,VALID,104,VALID,0,VALID,24.2202,VALID,356,VALID,0.230469,
2013-03-11, 03:29:05,VALID,1010.57,VALID,0,VALID,104,VALID,0.112112,VALID,24.1988,VALID,356,VALID,0.451562,
2013-03-11, 03:30:05,VALID,1010.55,VALID,0,VALID,104,VALID,0,VALID,24.1988,VALID,356,VALID,0.172266,
2013-03-11, 03:31:05,VALID,1010.55,VALID,0,VALID,104,VALID,0.112112,VALID,24.1599,VALID,356,VALID,0.251172,
2013-03-11, 03:32:05,VALID,1010.58,VALID,0,VALID,104,VALID,0,VALID,24.1404,VALID,356,VALID,0.0273438,
2013-03-11, 03:33:05,VALID,1010.58,VALID,0,VALID,104,VALID,0,VALID,24.1422,VALID,356,VALID,0,
2013-03-11, 03:34:05,VALID,1010.58,VALID,0,VALID,104,VALID,0.112112,VALID,24.1227,VALID,356,VALID,0,
2013-03-11, 03:35:05,VALID,1010.57,VALID,0,VALID,104,VALID,0.112112,VALID,24.1014,VALID,356,VALID,0.0554687,
2013-03-11, 03:36:05,VALID,1010.58,VALID,0,VALID,104,VALID,0.112112,VALID,24.0624,VALID,356,VALID,0.208594,
2013-03-11, 03:37:05,VALID,1010.59,VALID,0,VALID,104,VALID,0,VALID,24.0624,VALID,356,VALID,0.0785156,
2013-03-11, 03:38:05,VALID,1010.55,VALID,0,VALID,104,VALID,0,VALID,24.0429,VALID,356,VALID,0,
2013-03-11, 03:39:05,VALID,1010.56,VALID,0,VALID,104,VALID,0.112112,VALID,24.0643,VALID,356,VALID,0,
2013-03-11, 03:40:05,VALID,1010.56,VALID,0,VALID,104,VALID,0,VALID,24.0235,VALID,356,VALID,0,
2013-03-11, 03:41:05,VALID,1010.55,VALID,0,VALID,104,VALID,0.112112,VALID,24.0429,VALID,356,VALID,0,
2013-03-11, 03:42:05,VALID,1010.55,VALID,0,VALID,104,VALID,0.112112,VALID,24.0235,VALID,356,VALID,0,
2013-03-11, 03:43:05,VALID,1010.52,VALID,0,VALID,104,VALID,0,VALID,24.0624,VALID,356,VALID,0,
2013-03-11, 03:44:05,VALID,1010.5,VALID,0,VALID,104,VALID,0,VALID,24.0643,VALID,356,VALID,0,
2013-03-11, 03:45:05,VALID,1010.49,VALID,0,VALID,104,VALID,0.112112,VALID,24.0235,VALID,356,VALID,0,
2013-03-11, 03:46:05,VALID,1010.49,VALID,0,VALID,104,VALID,0.112112,VALID,24.004,VALID,356,VALID,0,
2013-03-11, 03:47:05,VALID,1010.51,VALID,0,VALID,104,VALID,0,VALID,23.9845,VALID,356,VALID,0,
2013-03-11, 03:48:05,VALID,1010.49,VALID,0,VALID,104,VALID,0,VALID,23.9845,VALID,356,VALID,0.0339844,
2013-03-11, 03:49:05,VALID,1010.49,VALID,0,VALID,104,VALID,0,VALID,24.0058,VALID,356,VALID,0.101563,
2013-03-11, 03:50:05,VALID,1010.45,VALID,0,VALID,104,VALID,0.112112,VALID,23.9845,VALID,356,VALID,0.121094,
2013-03-11, 03:51:05,VALID,1010.47,VALID,0,VALID,104,VALID,0,VALID,24.0253,VALID,356,VALID,0.0925781,
2013-03-11, 03:52:05,VALID,1010.43,VALID,0,VALID,104,VALID,0.112112,VALID,24.004,VALID,356,VALID,0.163672,
2013-03-11, 03:53:05,VALID,1010.43,VALID,0,VALID,104,VALID,0.112112,VALID,24.0058,VALID,356,VALID,0.234766,
2013-03-11, 03:54:05,VALID,1010.43,VALID,0,VALID,104,VALID,0.112112,VALID,23.9845,VALID,356,VALID,0.164844,
2013-03-11, 03:55:05,VALID,1010.46,VALID,0,VALID,104,VALID,0,VALID,23.9845,VALID,356,VALID,0.179688,
2013-03-11, 03:56:05,VALID,1010.48,VALID,0,VALID,104,VALID,0,VALID,23.9863,VALID,356,VALID,0.157813,